Torna al catalogo

CZ-8A R/B

AttivoLEO
NORAD 68138·ROCKET BODY·🇨🇳 China

Lanciato Mar 12, 2026 da Wenchang Space Launch Site

Loading…

Prossimi Passaggi (prossime 24 ore)

TLE

AggiornatoSource: Space-Track

Epoca: Sep 14, 2026, 16:34 UTC

1 68138U 26047K   26257.69052188 -.00000049  00000-0  56727-4 0  9991
2 68138  49.9538   9.1802 0044836  67.6360 292.9290 14.12258637 26267

Traccia CZ-8A R/B in tempo reale con AllMySat

Download on the App Store